This demonstration page uses our WeatherBlox Daily Observations layout. Learn more.

Left ArrowRight Arrow

41.86663, -103.66717

Hourly Observations for March 19, 2017

Temp ( °F °C ) Dew Point ( °F °C ) Humidity (%) Winds ( mph kmh ) Pressure ( in mb ) Visibility ( mi km ) Precip ( " mm )
12:53 am 00:53 Clear 50 10 29 -1.7 44 44 NE 8 13 29.89 1012 10 16 0.00 0.00
1:53 am 01:53 Clear 46 7.8 29 -1.7 51 51 NE 7 11 29.88 1012 10 16 0.00 0.00
2:53 am 02:53 Clear 47 8.3 29 -1.7 50 50 NE 7 11 29.87 1012 10 16 0.00 0.00
3:53 am 03:53 Clear 45 7.2 29 -1.7 54 54 NNW 8 13 29.86 1011 10 16 0.00 0.00
4:53 am 04:53 Clear 45 7.2 29 -1.7 54 54 WNW 12 19 29.87 1012 10 16 0.00 0.00
5:53 am 05:53 Clear 42 5.6 29 -1.7 60 60 Calm 29.90 1013 10 16 0.00 0.00
6:53 am 06:53 Clear 41 5 29 -1.7 62 62 NW 5 7 29.93 1014 10 16 0.00 0.00
7:53 am 07:53 Sunny 41 5 31 -0.6 67 67 NNW 5 7 29.95 1014 10 16 0.00 0.00
8:53 am 08:53 Sunny 49 9.4 33 0.6 55 55 WNW 3 6 29.96 1015 10 16 0.00 0.00
9:53 am 09:53 Sunny 66 18.9 32 0 28 28 WNW 12 19 29.95 1014 10 16 0.00 0.00
10:53 am 10:53 Sunny 72 22.2 32 0 23 23 NW 15 24 29.93 1014 10 16 0.00 0.00
11:53 am 11:53 Sunny 78 25.6 26 -3.3 15 15 W 32 52 29.91 1013 10 16 0.00 0.00
12:53 pm 12:53 Sunny 79 26.1 24 -4.4 13 13 W 28 44 29.89 1012 10 16 0.00 0.00
1:53 pm 13:53 Sunny 80 26.7 24 -4.4 13 13 W 16 26 29.89 1012 10 16 0.00 0.00
2:53 pm 14:53 Sunny 77 25 24 -4.4 14 14 W 21 33 29.90 1013 10 16 0.00 0.00
3:53 pm 15:53 Sunny 79 26.1 19 -7.2 10 10 W 29 46 29.87 1012 10 16 0.00 0.00
4:53 pm 16:53 Sunny 76 24.4 19 -7.2 12 12 W 24 39 29.90 1012 10 16 0.00 0.00
5:53 pm 17:53 Sunny 75 23.9 20 -6.7 12 12 W 23 37 29.92 1013 10 16 0.00 0.00
6:53 pm 18:53 Sunny 70 21.1 20 -6.7 15 15 WNW 18 30 29.94 1014 10 16 0.00 0.00
7:53 pm 19:53 Clear 67 19.4 21 -6.1 17 17 WNW 15 24 29.98 1015 10 16 0.00 0.00
8:53 pm 20:53 Clear 57 13.9 23 -5 27 27 WNW 8 13 29.98 1015 10 16 0.00 0.00
9:53 pm 21:53 Clear 57 13.9 24 -4.4 28 28 NW 6 9 29.95 1014 10 16 0.00 0.00
10:53 pm 22:53 Clear 57 13.9 24 -4.4 28 28 W 3 6 29.95 1014 10 16 0.00 0.00
11:53 pm 23:53 Clear 49 9.4 26 -3.3 41 41 N 6 9 29.94 1014 10 16 0.00 0.00

Powered by AerisWeather